Temp
-7 -6 -6 -7 -7 -7 -7 -7 -7 -7 -7 -7 -7 -7 -6 -6 -7 -7 -7 -7 -7 -7 -8 -8 -7 -7 -7 -7 -7 -7 -6 -6 -7 -7 -7 -7 -8 -7 -7 -7 -6 -6 -6
-6 -6 -6 -6 -6 -6 -7 -7 -7 -7 -7 -7 -7 -7 -7 -7 -6 -7 -7 -7 -7 -7 -7 -7 -8 -7 -7 -7 -7 -7 -6 -7 -7 -7 -6 -6 -7 -7 -7 -6 -6 -7 -7
-6 -6 -6 -6 -6 -6 -7 -7 -7 -7 -7 -7 -7 -7 -7 -7 -7 -7 -6 -7 -7 -7 -7 -7 -8 -8 -8 -7 -8 -8 -7 -7 -7 -7 -7 -7 -7 -7 -6 -6 -6 -7 -7
-7 -7 -7 -7 -7 -7 -7 -7 -7 -6 -6 -7 -7 -7 -7 -7 -7 -7 -7 -6 -7 -7 -7 -7 -7 -7 -7 -7 -7 -7 -8 -7 -7 -7 -7 -7 -7 -8 -7 -6 -6 -6 -6
-7 -7 -7 -7 -7 -7 -7 -7 -7 -7 -7 -7 -7 -7 -7 -7 -7 -7 -7 -7 -6 -6 -6 -6 -7 -7 -7 -8 -7 -8 -8 -7 -7 -7 -7 -7 -7 -6 -6 -7 -6 -6 -6
-8 -7 -7 -7 -7 -7 -7 -7 -7 -7 -7 -7 -7 -7 -7 -7 -7 -7 -7 -6 -6 -6 -6 -6 -6 -6 -7 -7 -7 -8 -7 -7 -7 -7 -7 -7 -7 -7 -7 -6 -7 -7 -7
-8 -8 -8 -7 -8 -8 -8 -8 -7 -7 -7 -7 -8 -8 -8 -8 -7 -7 -7 -7 -6 -6 -6 -6 -6 -6 -6 -7 -7 -6 -7 -7 -7 -7 -7 -8 -7 -7 -7 -7 -7 -7 -7
-8 -8 -8 -8 -8 -8 -8 -8 -8 -8 -7 -7 -8 -8 -8 -8 -8 -7 -7 -7 -7 -7 -6 -6 -6 -6 -6 -6 -6 -6 -6 -6 -6 -7 -7 -8 -8 -8 -7 -7 -7 -6 -7
-8 -8 -8 -8 -8 -8 -8 -8 -8 -8 -8 -8 -8 -8 -8 -8 -8 -8 -7 -7 -7 -7 -7 -6 -6 -6 -7 -7 -6 -6 -6 -7 -6 -6 -7 -7 -7 -7 -7 -7 -7 -7 -7
-9 -9 -9 -9 -9 -9 -9 -9 -9 -8 -8 -8 -8 -8 -8 -8 -8 -8 -8 -8 -7 -7 -7 -6 -6 -6 -6 -7 -7 -6 -6 -7 -7 -6 -6 -6 -7 -7 -8 -7 -7 -7 -7
-9 -9 -9 -9 -9 -9 -9 -9 -8 -8 -8 -8 -8 -8 -8 -8 -8 -8 -8 -8 -8 -8 -7 -7 -7 -7 -7 -6 -6 -6 -6 -7 -7 -7 -6 -6 -6 -7 -7 -8 -7 -7 -7
-9 -9 -9 -9 -9 -9 -9 -9 -9 -9 -9 -9 -9 -9 -9 -9 -9 -9 -9 -9 -8 -8 -8 -7 -7 -7 -7 -7 -7 -7 -7 -7 -6 -6 -7 -6 -6 -6 -6 -7 -7 -7 -6
-9 -9 -9 -10 -10 -10 -10 -10 -10 -10 -10 -10 -9 -9 -9 -10 -10 -10 -10 -10 -9 -9 -8 -8 -7 -8 -8 -8 -8 -8 -7 -7 -6 -7 -7 -7 -7 -6 -6 -6 -6 -7 -7
-10 -10 -10 -11 -11 -11 -11 -11 -11 -11 -11 -11 -10 -10 -10 -10 -11 -11 -12 -11 -11 -10 -9 -8 -8 -8 -8 -8 -8 -8 -8 -8 -7 -7 -7 -7 -7 -7 -6 -6 -6 -6 -6
-11 -11 -11 -11 -11 -11 -11 -11 -11 -11 -11 -11 -11 -10 -10 -10 -11 -12 -13 -13 -12 -11 -10 -10 -9 -9 -9 -9 -9 -9 -9 -9 -8 -9 -9 -8 -7 -7 -7 -6 -6 -6 -6
-12 -12 -12 -12 -11 -11 -11 -11 -11 -11 -11 -11 -10 -10 -11 -11 -11 -12 -13 -13 -12 -11 -10 -10 -10 -10 -10 -9 -9 -9 -9 -9 -9 -9 -10 -9 -8 -8 -7 -7 -6 -6 -6
-12 -12 -12 -12 -12 -12 -12 -11 -11 -12 -11 -11 -10 -10 -10 -11 -11 -12 -12 -12 -11 -11 -10 -10 -10 -10 -10 -9 -9 -9 -9 -9 -10 -9 -10 -10 -10 -9 -8 -8 -7 -6 -6
-12 -12 -12 -12 -12 -11 -11 -11 -11 -11 -11 -11 -10 -10 -10 -10 -10 -11 -11 -11 -11 -11 -10 -10 -10 -10 -10 -10 -10 -10 -10 -10 -10 -10 -11 -11 -11 -10 -9 -8 -8 -7 -7
-12 -12 -12 -11 -11 -11 -11 -11 -11 -10 -10 -10 -11 -11 -10 -10 -9 -9 -10 -10 -10 -10 -10 -10 -10 -10 -10 -10 -10 -10 -10 -10 -10 -10 -11 -11 -11 -11 -10 -9 -8 -8 -8
-12 -12 -12 -12 -11 -11 -11 -11 -11 -11 -11 -10 -10 -11 -11 -10 -9 -10 -10 -10 -10 -10 -10 -10 -10 -10 -10 -11 -11 -11 -10 -10 -11 -11 -11 -12 -12 -11 -11 -10 -9 -8 -8
-12 -13 -13 -13 -13 -12 -12 -12 -12 -11 -11 -11 -11 -11 -11 -10 -10 -10 -11 -11 -11 -11 -11 -11 -11 -11 -11 -11 -12 -11 -11 -11 -11 -11 -12 -12 -12 -12 -12 -11 -10 -9 -9
-13 -13 -13 -13 -14 -13 -13 -12 -12 -13 -13 -13 -12 -12 -12 -11 -11 -11 -11 -12 -12 -12 -12 -12 -12 -12 -12 -12 -12 -12 -11 -11 -12 -12 -12 -11 -11 -12 -12 -11 -11 -10 -10
-13 -13 -13 -14 -13 -13 -13 -13 -13 -13 -14 -14 -14 -14 -13 -13 -12 -12 -13 -13 -13 -13 -13 -13 -12 -12 -12 -12 -13 -12 -12 -12 -12 -12 -12 -11 -11 -11 -12 -11 -11 -11 -11
-13 -13 -14 -14 -14 -13 -12 -13 -13 -14 -15 -15 -14 -15 -14 -14 -13 -13 -13 -13 -13 -13 -13 -13 -13 -13 -13 -13 -13 -13 -12 -12 -12 -12 -11 -11 -11 -11 -11 -11 -11 -11 -11
-14 -14 -14 -14 -13 -13 -13 -13 -13 -13 -14 -14 -14 -14 -14 -14 -14 -14 -14 -13 -13 -13 -14 -13 -13 -14 -14 -14 -14 -13 -13 -12 -12 -12 -11 -11 -11 -11 -11 -11 -11 -11 -11
-14 -14 -14 -14 -14 -14 -14 -14 -14 -14 -14 -14 -14 -14 -14 -14 -14 -14 -14 -14 -14 -13 -13 -13 -14 -13 -14 -14 -13 -13 -13 -13 -13 -12 -11 -11 -11 -11 -11 -11 -11 -11 -11
Height
5909 5909 5908 5906 5905 5903 5902 5900 5899 5896 5896 5896 5893 5893 5893 5892 5891 5890 5889 5888 5888 5886 5885 5885 5885 5883 5881 5883 5885 5887 5888 5888 5889 5892 5895 5897 5899 5902 5903 5905 5908 5907 5909
5905 5905 5902 5902 5901 5899 5897 5894 5892 5892 5891 5890 5890 5889 5888 5887 5886 5886 5885 5885 5884 5883 5880 5880 5879 5878 5879 5879 5880 5882 5883 5882 5881 5882 5886 5889 5892 5897 5902 5902 5902 5903 5903
5896 5896 5895 5895 5895 5894 5892 5890 5887 5885 5883 5883 5884 5884 5883 5882 5881 5880 5879 5879 5878 5878 5876 5875 5873 5873 5872 5870 5871 5871 5874 5877 5878 5878 5879 5883 5886 5892 5894 5894 5895 5896 5898
5889 5888 5887 5886 5885 5884 5883 5882 5880 5878 5876 5875 5874 5874 5875 5874 5872 5871 5871 5871 5871 5870 5870 5870 5869 5869 5863 5857 5861 5864 5865 5864 5862 5868 5871 5875 5878 5880 5883 5886 5888 5889 5889
5880 5879 5877 5875 5874 5873 5872 5871 5869 5867 5866 5864 5863 5862 5863 5864 5863 5862 5861 5862 5862 5863 5862 5861 5861 5860 5856 5852 5848 5850 5858 5859 5858 5859 5863 5867 5871 5874 5877 5876 5879 5880 5883
5869 5866 5865 5863 5861 5859 5858 5856 5855 5853 5852 5852 5851 5850 5850 5851 5851 5850 5850 5851 5851 5852 5852 5851 5851 5852 5849 5846 5847 5848 5848 5850 5854 5856 5858 5859 5862 5864 5866 5868 5870 5873 5877
5858 5857 5854 5852 5851 5848 5845 5843 5842 5840 5840 5840 5838 5836 5836 5836 5836 5836 5836 5838 5839 5839 5840 5840 5840 5841 5842 5839 5839 5839 5841 5843 5846 5846 5850 5852 5853 5855 5857 5859 5861 5864 5868
5849 5846 5843 5841 5838 5835 5832 5830 5828 5826 5825 5825 5824 5823 5822 5823 5822 5822 5821 5823 5826 5827 5827 5826 5826 5826 5827 5829 5830 5832 5833 5835 5837 5838 5840 5842 5843 5844 5847 5850 5850 5849 5856
5833 5830 5828 5826 5824 5821 5818 5815 5813 5812 5810 5808 5807 5807 5807 5808 5808 5807 5806 5807 5809 5813 5813 5812 5812 5812 5812 5813 5816 5819 5822 5825 5825 5827 5830 5832 5834 5836 5837 5839 5842 5843 5847
5823 5819 5815 5813 5810 5808 5804 5801 5799 5796 5794 5792 5791 5790 5790 5791 5791 5791 5790 5790 5793 5795 5798 5799 5798 5799 5799 5800 5802 5805 5810 5813 5812 5813 5817 5821 5824 5825 5827 5830 5832 5835 5837
5810 5806 5802 5798 5795 5791 5788 5785 5782 5779 5777 5776 5774 5773 5772 5771 5772 5772 5773 5773 5776 5779 5783 5785 5785 5785 5787 5788 5790 5793 5796 5796 5798 5800 5804 5808 5811 5814 5816 5818 5820 5823 5826
5796 5792 5788 5783 5779 5775 5771 5767 5764 5760 5758 5756 5755 5755 5754 5753 5752 5752 5753 5754 5757 5760 5765 5766 5769 5770 5773 5776 5777 5780 5781 5781 5782 5785 5790 5795 5797 5800 5803 5804 5807 5812 5816
5781 5777 5772 5767 5762 5758 5754 5750 5747 5743 5740 5738 5737 5737 5737 5736 5735 5733 5733 5733 5734 5740 5745 5749 5751 5754 5756 5759 5761 5762 5763 5766 5766 5767 5773 5780 5781 5783 5788 5793 5797 5800 5803
5767 5761 5756 5751 5746 5742 5737 5733 5730 5727 5724 5721 5719 5718 5718 5718 5715 5711 5708 5709 5712 5718 5724 5730 5735 5737 5740 5743 5745 5747 5749 5749 5750 5751 5755 5762 5766 5769 5774 5778 5784 5786 5789
5751 5746 5740 5735 5730 5726 5721 5717 5714 5711 5708 5706 5704 5703 5702 5701 5699 5693 5688 5687 5692 5699 5706 5713 5718 5721 5724 5726 5729 5732 5733 5734 5736 5736 5738 5743 5749 5753 5760 5764 5769 5771 5777
5738 5732 5726 5721 5715 5710 5706 5702 5697 5695 5693 5690 5689 5688 5687 5685 5684 5679 5676 5676 5680 5685 5692 5698 5702 5705 5708 5710 5712 5715 5718 5719 5720 5722 5723 5727 5733 5738 5745 5748 5754 5758 5763
5725 5719 5712 5706 5701 5695 5691 5687 5685 5681 5677 5676 5674 5672 5672 5674 5671 5670 5668 5667 5670 5674 5678 5682 5687 5690 5692 5693 5695 5698 5702 5704 5705 5707 5709 5713 5717 5723 5729 5735 5740 5745 5751
5711 5705 5699 5693 5687 5681 5676 5672 5668 5666 5665 5661 5657 5657 5657 5657 5657 5658 5657 5657 5661 5662 5665 5668 5670 5673 5676 5678 5680 5683 5686 5689 5691 5694 5696 5700 5704 5709 5714 5722 5727 5731 5736
5699 5692 5685 5679 5672 5666 5660 5655 5650 5647 5644 5644 5644 5641 5639 5641 5642 5643 5644 5646 5647 5649 5651 5653 5655 5656 5659 5662 5664 5666 5670 5674 5678 5681 5685 5688 5693 5696 5701 5707 5713 5718 5723
5685 5678 5670 5663 5656 5650 5643 5637 5632 5628 5626 5624 5623 5623 5624 5625 5626 5627 5629 5631 5632 5634 5636 5638 5639 5640 5642 5645 5648 5651 5655 5660 5664 5669 5674 5679 5682 5684 5689 5694 5699 5705 5711
5672 5664 5655 5647 5639 5631 5624 5617 5611 5607 5605 5604 5603 5602 5604 5608 5610 5611 5612 5614 5616 5618 5620 5623 5624 5626 5628 5631 5633 5636 5641 5645 5651 5656 5662 5668 5672 5675 5679 5682 5686 5692 5699
5658 5649 5640 5631 5622 5613 5605 5598 5593 5589 5585 5583 5583 5583 5585 5590 5592 5595 5597 5599 5601 5604 5605 5607 5610 5612 5614 5616 5620 5624 5628 5632 5638 5644 5651 5657 5662 5666 5668 5671 5675 5681 5686
5646 5637 5627 5617 5607 5599 5591 5584 5579 5573 5570 5568 5567 5567 5570 5574 5577 5580 5583 5586 5588 5590 5592 5595 5597 5598 5600 5603 5607 5612 5615 5620 5625 5632 5640 5646 5651 5656 5659 5661 5664 5668 5672
5635 5625 5615 5606 5598 5589 5580 5575 5569 5563 5561 5559 5559 5560 5562 5564 5567 5569 5572 5575 5576 5578 5580 5581 5583 5585 5587 5589 5593 5598 5603 5608 5613 5621 5629 5635 5641 5646 5649 5652 5656 5658 5661
5624 5615 5606 5599 5592 5583 5575 5570 5566 5562 5560 5558 5557 5557 5557 5558 5559 5561 5562 5565 5566 5567 5568 5570 5572 5574 5577 5580 5583 5587 5592 5597 5603 5609 5617 5624 5630 5635 5639 5643 5647 5651 5654
5618 5608 5599 5593 5587 5579 5572 5568 5564 5561 5558 5556 5554 5554 5553 5554 5554 5554 5555 5555 5557 5558 5559 5559 5562 5565 5568 5571 5575 5578 5583 5588 5593 5600 5608 5614 5620 5625 5629 5633 5636 5641 5644
Wind_Speed
14 15 16 19 20 20 20 21 22 23 23 22 22 21 18 15 14 14 14 12 11 15 16 13 14 16 11 13 14 13 12 14 18 22 16 22 19 18 20 21 21 18 16
18 17 18 20 22 23 25 25 27 27 27 27 26 25 25 22 19 17 18 17 16 17 16 15 17 18 17 19 19 18 15 14 21 21 19 21 16 20 24 26 22 22 20
27 26 25 26 26 25 26 29 29 31 33 31 31 30 30 29 25 24 22 21 20 20 20 21 17 17 22 24 23 23 21 20 23 21 28 30 27 25 31 26 27 24 22
31 31 31 32 33 32 32 32 33 35 35 35 34 32 31 32 33 31 28 25 25 25 25 25 24 24 29 32 34 24 23 22 27 23 21 27 28 28 31 31 32 32 29
34 35 37 39 38 38 38 38 38 38 38 39 38 38 36 35 35 35 34 31 28 28 29 30 29 30 32 30 32 18 23 24 22 28 22 24 28 29 31 32 31 32 29
39 42 43 44 45 45 45 45 44 44 44 43 43 43 42 40 38 38 38 36 32 30 31 33 34 33 34 34 29 32 20 22 25 27 28 31 28 29 31 31 31 32 32
43 44 46 46 46 47 48 49 49 49 48 46 46 46 46 45 43 42 41 37 35 36 36 37 38 39 39 38 36 35 28 28 24 31 31 30 31 33 36 33 34 34 34
44 45 47 48 49 50 52 52 52 53 52 50 47 47 47 46 46 46 44 41 38 38 39 39 40 42 44 44 42 39 37 34 35 33 31 36 36 39 37 36 38 34 33
47 49 49 49 48 48 48 49 49 49 49 49 48 47 46 46 46 47 48 47 45 41 40 40 40 41 43 47 48 45 42 42 40 39 38 36 41 41 39 39 37 38 34
43 44 46 46 47 48 50 51 51 51 53 53 53 52 51 50 50 51 52 51 50 47 43 40 40 36 34 33 34 38 46 47 49 48 45 42 39 38 42 40 40 40 39
47 48 50 50 51 52 52 53 54 54 56 56 56 56 57 57 57 57 57 57 54 51 47 42 40 42 40 39 37 35 33 44 55 55 52 48 47 45 42 39 42 42 42
48 49 50 52 53 54 54 55 55 56 56 56 52 49 48 49 51 55 59 61 60 56 52 49 44 44 45 42 42 39 40 43 44 60 57 53 51 50 48 48 46 43 42
52 53 53 52 53 53 53 52 52 53 51 51 50 51 53 55 55 55 56 59 62 60 55 51 48 45 47 47 46 46 46 46 44 49 61 58 57 55 50 49 47 47 45
54 53 53 52 52 51 51 52 50 49 48 49 50 49 48 48 49 52 56 58 59 56 56 51 48 46 47 46 46 44 44 45 44 44 56 62 61 59 54 52 50 48 48
52 51 51 52 52 51 50 49 48 47 46 45 44 42 40 40 43 45 46 47 50 51 50 47 45 45 45 45 45 44 42 43 41 42 47 59 64 62 56 54 51 50 49
49 50 49 48 48 47 47 46 47 45 44 44 43 41 39 39 36 37 36 36 41 43 43 43 43 45 47 49 49 48 45 42 40 41 43 50 60 64 59 56 52 51 47
47 47 47 47 46 46 46 45 44 42 45 43 42 42 41 36 35 36 34 34 33 34 37 40 43 45 48 50 52 50 46 44 41 40 42 46 51 60 61 56 54 52 48
47 47 46 46 47 47 47 47 47 45 42 43 47 45 44 42 40 38 36 36 34 36 38 41 43 44 44 46 49 49 48 47 44 41 42 41 45 51 57 55 54 53 47
47 48 49 50 52 53 53 53 53 52 50 47 44 46 47 43 40 39 39 38 39 40 42 42 43 44 44 44 46 47 48 49 47 43 41 38 39 42 48 51 51 50 46
51 52 53 55 57 58 57 56 55 54 53 52 51 49 46 47 47 46 44 42 42 41 42 43 44 45 46 45 45 46 47 48 48 43 39 36 35 36 35 42 47 48 47
52 51 52 52 55 56 54 54 54 53 50 50 50 51 49 46 44 43 42 41 40 41 40 41 41 42 43 42 41 43 44 46 44 41 39 34 33 32 28 30 34 40 42
51 51 54 52 55 54 48 45 44 43 42 44 46 45 44 43 41 38 38 37 37 37 38 38 38 40 42 42 41 40 39 39 41 39 37 34 34 32 27 24 28 35 36
48 51 50 51 43 41 41 38 36 37 35 35 33 33 34 33 33 33 32 33 34 36 36 36 37 38 38 41 40 39 37 35 36 37 36 35 34 32 30 25 21 24 30
51 48 50 40 38 40 32 27 29 21 18 20 18 17 19 21 23 25 27 29 30 32 33 34 32 33 35 35 36 36 36 33 33 36 36 34 33 30 27 25 27 25 25
48 49 44 33 35 38 26 21 20 17 15 14 12 14 16 19 19 21 22 23 26 29 32 31 29 30 29 31 33 33 33 32 32 36 38 36 33 31 29 27 27 26 24
44 47 35 29 32 34 26 20 18 16 18 15 15 14 13 14 17 19 21 21 21 20 25 24 28 27 27 27 30 33 30 31 31 34 38 37 35 32 31 23 25 27 25
Wind_Direction
298 296 300 298 297 296 299 296 292 298 301 302 305 307 307 311 313 314 312 300 308 305 275 274 273 275 276 271 272 265 252 247 225 216 231 226 213 216 222 232 228 224 225
294 297 294 292 291 289 290 292 294 292 292 295 296 297 300 299 298 295 291 292 288 288 295 267 268 271 268 269 261 261 259 254 238 229 226 222 224 221 230 228 233 233 233
303 301 298 296 292 287 282 282 283 285 287 287 287 288 288 288 286 283 280 281 283 282 279 288 281 262 264 257 247 245 249 244 223 236 236 235 231 225 247 229 235 241 242
296 299 297 295 292 289 285 280 279 279 278 278 279 277 277 279 280 278 276 273 273 276 278 278 285 285 267 259 254 245 245 244 234 227 236 226 224 231 239 234 229 237 243
296 294 292 290 289 287 286 286 285 282 281 282 281 281 279 275 272 271 273 272 267 267 270 272 271 275 276 283 288 278 247 252 255 258 237 242 241 239 233 233 242 248 250
290 290 291 291 291 290 289 289 288 286 284 283 282 282 281 277 271 269 268 266 266 267 269 268 266 267 267 269 268 266 274 255 256 254 251 246 243 249 252 245 241 245 253
288 289 289 289 287 287 286 284 282 282 281 281 280 279 278 276 272 268 267 258 261 269 272 271 268 264 260 260 262 266 261 257 255 253 252 253 251 245 249 252 249 246 243
286 284 283 283 282 281 281 282 282 282 282 280 277 274 273 271 268 267 265 261 260 265 269 272 269 262 256 252 253 254 255 253 255 256 250 250 250 250 249 247 250 253 245
288 287 286 285 284 283 282 281 280 281 279 278 277 274 271 269 265 266 265 263 260 261 269 271 272 265 257 252 249 249 249 250 249 252 254 251 251 252 251 250 251 253 253
287 286 286 286 285 284 283 282 281 280 279 278 278 277 274 270 268 267 267 265 264 263 262 267 269 258 253 254 255 255 249 248 248 247 248 251 252 254 248 251 251 249 250
292 291 291 290 289 288 288 286 285 284 282 280 279 278 277 275 273 271 268 266 264 262 260 259 261 253 254 254 258 260 262 251 246 245 246 247 250 252 255 254 250 250 250
292 292 291 290 289 288 287 287 287 286 284 280 277 275 276 277 277 274 270 266 263 260 256 257 257 254 253 256 263 265 264 265 260 245 243 244 247 250 252 253 255 253 253
296 294 292 290 289 289 288 287 285 283 281 278 277 275 276 277 276 276 274 267 259 258 253 253 256 255 251 252 255 258 264 263 269 252 242 241 244 247 249 252 251 251 251
295 293 291 290 289 290 290 289 286 283 280 279 278 279 278 276 279 280 272 262 254 249 251 252 253 256 254 253 254 257 258 265 267 269 243 239 240 243 245 249 251 252 251
298 296 295 293 292 291 290 288 287 284 280 278 277 277 279 281 282 283 274 258 247 242 245 250 253 252 251 252 256 261 262 263 268 267 256 241 239 241 244 246 248 252 254
299 298 296 295 293 292 290 289 287 285 281 279 277 277 277 281 282 281 271 261 249 241 244 251 251 250 252 255 258 259 258 261 266 264 259 247 243 243 243 244 245 250 253
302 301 300 298 297 294 292 290 286 284 282 278 276 276 275 274 276 273 272 261 249 248 251 252 251 252 253 256 258 256 254 256 260 260 256 251 245 245 246 246 246 247 250
306 304 302 300 299 298 296 294 290 285 279 278 278 275 273 274 272 267 265 264 259 256 252 253 255 256 255 255 256 256 256 255 257 255 253 252 248 246 248 249 249 250 252
309 308 306 304 301 298 295 292 290 287 284 281 276 273 273 270 269 269 266 263 262 261 258 258 260 258 257 256 256 256 254 254 253 251 249 250 250 248 250 252 253 251 252
312 309 306 302 298 295 293 291 287 283 280 277 276 275 270 267 267 269 268 266 264 261 256 258 258 259 259 258 255 253 251 249 248 249 246 246 247 248 247 252 254 253 250
312 310 308 306 303 300 297 294 291 287 282 276 272 270 269 267 266 266 264 262 259 257 257 258 258 257 256 255 253 250 247 247 243 243 243 241 245 244 238 241 248 252 251
315 313 311 310 308 304 301 297 293 290 285 280 274 269 266 264 262 260 258 258 258 256 256 256 254 255 255 254 248 245 248 247 240 236 237 238 240 243 239 239 244 246 244
317 316 316 316 317 317 310 308 304 295 285 286 276 265 260 257 255 253 253 253 254 255 254 256 259 257 253 249 247 241 242 245 241 231 231 233 235 240 239 238 244 245 244
323 322 326 326 327 328 320 317 324 321 304 293 279 265 259 259 257 257 256 255 251 253 258 256 254 253 251 246 240 237 235 239 237 228 227 230 234 237 240 241 243 243 236
326 329 328 325 332 338 330 324 330 339 332 309 283 282 272 274 262 266 256 262 258 265 258 251 253 250 248 243 235 232 232 236 232 223 223 228 233 240 241 250 248 248 247
327 330 326 321 330 337 335 328 321 320 324 321 293 292 287 275 273 266 262 256 258 268 257 255 246 246 238 235 233 230 228 232 228 223 222 225 231 237 246 260 254 244 252